Location: Pardubice
(50.0330°N, 15.7830°E)
Time: 15:02:09
(UTC+02:00)

Courier 1B - All Passes

Search period start: 18 July 2025 00:00
Search period end: 28 July 2025 00:00
Orbit: 962 x 1208 km, 28.3° (Epoch: 17 July)

Date Brightness Start Highest point End Pass type
(mag) Time Alt. Az. Time Alt. Az. Time Alt. Az.
18 Jul - 13:31:29 10° SSW 13:34:32 13° S 13:37:39 10° SSE daylight
19 Jul - 12:38:11 10° SSW 12:40:57 12° S 12:43:47 10° SSE daylight
19 Jul - 14:32:02 10° SSW 14:33:34 11° SSW 14:35:06 10° S daylight
20 Jul - 11:45:17 10° S 11:47:24 11° S 11:49:34 10° SSE daylight
20 Jul - 13:37:43 10° SSW 13:39:59 12° S 13:42:18 10° S daylight
21 Jul - 12:43:57 10° SSW 12:46:25 12° S 12:48:55 10° SSE daylight
22 Jul - 11:50:32 10° SSW 11:52:52 12° S 11:55:15 10° SSE daylight
23 Jul - 10:57:30 10° S 10:59:21 11° S 11:01:13 10° SSE daylight
24 Jul - 10:05:39 10° S 10:05:51 10° S 10:06:02 10° S daylight
24 Jul - 11:57:00 10° SSW 11:58:21 11° S 11:59:42 10° S daylight
25 Jul - 11:03:18 10° SSW 11:04:50 11° S 11:06:23 10° S daylight
26 Jul - 10:10:04 10° S 10:11:20 11° S 10:12:38 10° SSE daylight
